This is the latest recevied weather packets stored in our database for station/object HF6UWU. If no packets are shown the sender has not sent any weather packets the latest 10 day(s).
| Time | Temp. | Humidity | Pressure | Rain* | Wind** | Luminosity | Snow |
|---|---|---|---|---|---|---|---|
| 1788510211 | 20.56° C | 69% | 1003.1 hPa | 0 mm | - | 255 W/m² | - |
| 1788509609 | 20.56° C | 71% | 1003.2 hPa | 0 mm | - | 188 W/m² | - |
| 1788508361 | 20.56° C | 72% | 1003.5 hPa | 0 mm | - | 197 W/m² | - |
| 1788507750 | 20° C | 72% | 1003.4 hPa | 0 mm | - | 217 W/m² | - |
| 1788507137 | 20° C | 73% | 1003.4 hPa | 0 mm | - | 165 W/m² | - |
| 1788505902 | 20° C | 73% | 1003.7 hPa | 0 mm | - | 204 W/m² | - |
| 1788505288 | 20° C | 74% | 1003.8 hPa | 0 mm | - | 301 W/m² | - |
| 1788503460 | 18.89° C | 77% | 1003.8 hPa | 0 mm | - | 168 W/m² | - |
| 1788502850 | 18.33° C | 78% | 1003.7 hPa | 0 mm | - | 100 W/m² | - |
| 1788502237 | 18.33° C | 78% | 1003.6 hPa | 0 mm | - | 75 W/m² | - |
| 1788501013 | 18.33° C | 78% | 1004 hPa | 0 mm | - | 46 W/m² | - |
| 1788500400 | 17.78° C | 78% | 1004 hPa | 0 mm | - | 41 W/m² | - |
| 1788499789 | 17.78° C | 79% | 1004.1 hPa | 0 mm | - | 39 W/m² | - |
| 1788498562 | 17.78° C | 79% | 1004 hPa | 0 mm | - | 34 W/m² | - |
| 1788497949 | 17.78° C | 79% | 1003.9 hPa | 0 mm | - | 21 W/m² | - |
| 1788496712 | 17.78° C | 80% | 1004 hPa | 0 mm | - | 6 W/m² | - |
| 1788496110 | 17.22° C | 80% | 1004 hPa | 0 mm | - | 3 W/m² | - |
| 1788495504 | 17.22° C | 81% | 1003.9 hPa | 0 mm | - | 3 W/m² | - |
| 1788494887 | 17.22° C | 80% | 1003.7 hPa | 0 mm | - | 1 W/m² | - |
| 1788493648 | 17.78° C | 79% | 1004.2 hPa | 0 mm | - | 0 W/m² | - |
| 1788493040 | 17.78° C | 80% | 1004.3 hPa | 0 mm | - | 0 W/m² | - |
| 1788492437 | 17.22° C | 80% | 1004.5 hPa | 0 mm | - | 0 W/m² | - |
| 1788491825 | 17.22° C | 80% | 1004.4 hPa | 0 mm | - | 0 W/m² | - |
| 1788490585 | 17.22° C | 79% | 1004.5 hPa | 0 mm | - | 0 W/m² | - |
| 1788489975 | 17.78° C | 79% | 1004.3 hPa | 0 mm | - | 0 W/m² | - |
* Rain latest hour (hover to see other rain measurements)
** Current wind speed in m/s (hover to see current wind gust speed)